Tracking 31027 objects as of 19-Jul-2025
HD Live streaming from Space Station
objects crossing your sky now

NOAA 16 DEB

Track NOAA 16 DEB now!
10-day predictions


NORAD ID: 42406
Int'l Code: 2000-055TA
Perigee: 822.7 km
Apogee: 846.8 km
Inclination: 98.6 °
Period: 101.5 minutes
Semi major axis: 7205 km
RCS: Unknown
Launch date: September 21, 2000
Source: United States (US)
Launch site: AIR FORCE WESTERN TEST RANGE (AFWTR)

Note: This is SATELLITE DEBRIS
Your satellite tracking list
Your tracking list is empty




NASA's NSSDC Master Catalog

Two Line Element Set (TLE):
1 42406U 00055TA  25198.43331601  .00000762  00000-0  38272-3 0  9992
2 42406  98.6106 259.2922 0016753 197.3807 162.6797 14.19327414481519
Source of the keplerian elements: AFSPC